SCP
0 0 0 0 0 0 0 0 0 0 0 0 0 0 0 0 0 0 0 0 0 0 -0 0 0 0 0 -0 0 0 0 0 0 0 0 0 0 0 0 0 0 0 0 0 0 0 0
0 0 0 0 0 0 0 0 0 0 0 0 0 0 0 0 0 0 0 0 0 0 0 -0 0 0 0 0 0 0 0 0 0 0 0 0 0 0 0 0 0 0 0 0 0 0 0
0 0 0 0 0 0 0 0 0 0 0 0 0 0 0 0 0 0 0 0 0 0 -0 -0 0 0 0 0 0 0 0 0 0 0 0 0 0 0 0 0 0 0 0 0 0 0 0
0 0 0 0 0 0 0 0 0 0 0 0 0 0 0 0 0 0 0 0 0 -0 -0 -0 -0 0 0 0 0 0 0 0 0 0 0 0 0 0 0 0 0 0 0 0 0 0 0
0 0 0 0 0 0 0 0 0 0 0 0 0 0 0 0 0 0 0 0 0 0 -0 -0 0 0 0 0 0 0 0 0 0 0 0 0 0 0 0 0 0 0 0 0 0 0 0
0 0 0 0 0 0 0 0 0 0 0 0 0 0 0 0 0 0 0 0 0 0 0 0 0 0 0 0 0 0 0 0 0 0 0 0 0 0 0 0 0 0 0 0 0 0 0
0 0 0 0 0 0 0 0 0 0 0 0 0 0 0 0 0 0 0 0 0 0 0 0 0 0 0 0 0 0 0 0 0 0 0 0 0 0 0 0 0 0 0 0 0 0 0
0 0 0 0 0 0 0 0 0 0 0 0 0 0 0 0 -0 0 0 0 0 0 0 0 0 -0 0 0 0 0 0 0 0 0 0 0 0 0 0 0 0 0 0 0 0 0 0
0 0 0 0 0 0 0 0 0 0 0 0 0 0 0 0 -0 0 0 0 0 0 0 0 0 0 0 0 0 0 0 0 0 0 0 0 0 0 0 0 0 0 0 0 0 0 0
0 0 0 0 0 0 0 0 0 0 0 0 0 0 0 0 0 0 0 0 0 0 0 0 0 0 0 0 0 0 0 0 0 0 0 0 0 0 0 0 0 0 0 0 0 0 0
0 0 0 0 0 0 0 0 0 0 0 0 0 0 0 0 0 0 0 0 0 0 0 0 0 0 0 0 0 0 0 0 0 0 0 0 0 0 0 0 0 0 0 0 0 0 0
0 0 0 0 0 0 0 0 0 0 0 0 0 0 0 0 0 0 0 0 0 0 0 0 0 0 0 0 0 0 0 0 0 0 0 0 0 0 0 0 0 0 0 0 0 0 0
0 0 0 0 0 0 0 0 0 0 0 0 0 0 0 0 0 0 0 0 0 0 0 0 0 0 0 0 0 0 0 0 0 0 0 0 0 0 0 0 0 0 0 0 0 0 0
0 0 0 0 0 0 0 0 0 0 0 0 0 0 0 0 0 0 0 -0 0 0 -0 -0 0 0 0 0 0 0 0 0 0 0 0 0 0 0 0 0 -0 0 0 0 0 0 0
0 0 0 0 0 0 0 0 0 0 0 0 0 0 0 0 0 0 0 0 0 0 -0 -0 0 0 0 0 0 0 0 0 0 0 0 0 0 0 -0 0 0 0 0 0 0 0 0
0 0 0 0 0 0 0 0 0 0 0 0 0 0 0 0 0 0 0 0 0 0 -0 -0 0 0 0 0 0 0 0 0 0 0 0 0 0 0 -0 0 0 -0 0 0 0 0 0
0 0 0 0 0 0 0 0 0 0 0 0 0 0 0 -0 0 0 0 0 0 0 0 0 0 0 0 0 0 0 0 0 0 0 0 0 0 0 0 0 0 0 0 0 0 0 0
0 0 0 0 0 0 0 0 0 0 0 0 0 0 0 0 0 0 -0 0 0 -0 -0 0 0 0 0 0 0 0 0 0 0 0 0 0 0 0 0 0 0 0 0 0 0 0 0
0 0 0 0 0 0 0 0 0 0 0 0 0 0 -0 -0 -0 0 0 0 -0 -0 -0 0 0 0 0 0 0 0 0 0 0 0 0 0 0 0 0 0 0 0 0 0 0 0 0
0 0 0 0 0 0 0 0 0 0 0 0 0 0 0 -0 -0 0 0 0 0 0 -0 0 0 0 0 0 0 0 0 0 0 0 0 0 0 0 0 0 0 0 0 0 0 0 -0
0 0 0 0 0 0 0 0 0 0 0 0 0 0 0 0 0 0 0 0 0 0 0 -0 0 0 0 0 0 0 0 0 0 0 0 0 0 0 0 0 0 0 0 0 0 0 0
0 0 0 0 0 0 0 0 0 0 0 0 0 0 0 -0 0 0 0 0 0 0 -0 -0 0 0 0 0 0 0 0 0 0 0 0 0 0 0 0 0 0 0 0 0 0 0 0
0 0 0 0 0 0 0 0 0 0 0 0 0 0 0 -0 0 0 0 0 0 -0 0 -0 0 0 0 0 0 0 0 0 0 0 0 0 0 0 0 0 0 0 0 0 0 0 0
0 0 0 0 0 0 0 0 0 0 0 0 0 0 0 0 0 0 0 -0 -0 -0 0 0 0 0 0 0 0 0 0 0 0 0 0 0 0 0 0 0 0 0 0 0 0 0 0
0 0 0 0 0 0 0 0 0 0 0 0 0 0 0 0 0 0 -0 0 -0 -0 0 0 0 0 0 0 0 0 0 0 0 0 0 0 0 0 0 0 0 0 0 0 0 0 0
0 0 0 0 0 0 0 0 0 0 0 0 0 0 0 0 0 0 0 0 0 0 0 0 0 0 0 0 0 0 0 0 0 0 0 0 0 0 0 0 0 0 0 0 0 0 0
0 0 0 0 0 0 0 0 0 0 0 0 0 0 0 0 0 0 0 0 0 0 0 0 0 0 0 0 0 0 0 0 0 0 0 0 0 0 0 0 0 0 0 0 0 0 0
0 0 0 0 0 0 0 0 0 0 -0 0 0 0 0 0 0 -0 0 0 0 0 0 0 0 0 0 0 0 0 0 0 0 0 0 0 0 0 0 0 0 0 0 0 0 0 0
0 0 0 0 0 0 0 0 0 0 0 0 0 0 0 0 0 0 0 0 -0 0 0 0 0 0 0 0 0 0 0 0 0 0 0 0 0 0 0 0 0 0 0 0 0 0 0
Wind_Speed_500mb
41 40 40 40 40 38 36 31 34 34 33 35 37 38 40 39 41 40 37 38 35 35 35 30 23 21 28 18 53 16 23 21 55 66 66 43 44 25 16 17 5 4 4 8 9 14 20
43 42 40 41 41 43 42 40 37 38 37 31 36 39 41 41 40 43 41 37 38 35 33 27 23 20 27 25 25 13 28 22 56 65 66 49 34 33 16 7 18 8 21 20 7 19 21
46 45 43 43 42 44 44 42 41 40 37 33 36 38 42 43 41 41 44 46 40 37 30 24 21 23 37 65 20 6 7 7 46 64 60 56 24 37 11 4 14 23 4 13 15 14 12
48 47 47 46 45 48 47 45 44 42 40 36 38 39 42 43 46 43 45 47 38 30 25 18 11 22 33 37 24 42 32 20 34 53 23 52 20 26 6 3 11 13 5 11 19 21 14
50 50 50 49 49 49 49 48 48 45 47 45 43 44 40 45 43 45 45 50 37 32 25 12 18 26 27 21 26 30 41 38 31 39 38 6 42 5 5 11 8 10 23 13 11 13 9
54 53 52 51 52 53 50 47 47 44 44 44 43 43 42 45 45 44 47 51 37 25 18 12 21 11 32 12 14 29 51 34 31 29 19 14 17 7 2 8 27 24 21 11 26 11 11
54 54 54 55 54 54 55 53 47 47 49 44 47 46 46 47 50 45 47 49 5 3 28 28 31 25 11 13 15 21 53 44 32 32 12 24 9 33 20 11 1 11 12 7 5 14 9
55 55 55 55 56 57 57 54 54 53 52 52 51 49 51 56 55 49 51 23 10 5 20 53 66 61 62 33 15 16 55 29 19 12 11 10 18 13 12 14 10 3 8 10 3 10 14
57 56 56 57 58 59 61 62 60 60 60 58 55 55 53 56 66 50 25 23 18 22 13 23 56 55 45 31 23 25 60 28 15 13 15 15 10 20 20 16 18 9 9 4 4 8 4
58 57 58 59 60 61 61 64 65 63 63 65 63 61 56 63 45 20 29 19 22 17 8 11 19 18 29 24 13 45 58 33 8 21 18 8 14 32 13 21 13 10 15 11 7 3 9
58 59 61 62 62 62 63 64 68 69 69 69 67 65 63 54 51 48 16 9 11 11 8 8 15 16 46 31 25 30 52 37 15 13 14 16 24 22 23 11 15 10 13 13 10 7 7
59 61 63 63 64 66 68 68 71 74 76 76 73 68 71 67 48 28 15 14 21 6 12 4 20 20 24 15 2 44 37 47 34 13 9 15 19 15 18 13 19 13 7 3 6 8 5
60 61 63 64 66 68 71 73 76 81 84 83 80 78 65 42 39 12 31 27 5 9 10 3 11 21 21 13 5 37 30 36 12 12 11 8 9 8 11 11 7 10 12 1 2 2 12
62 63 64 66 68 70 71 75 79 86 92 90 88 75 40 20 18 30 44 4 8 12 9 14 9 9 21 10 6 30 30 25 10 10 8 11 4 16 9 15 14 13 16 9 8 8 3
62 64 65 67 70 70 72 75 81 87 93 92 89 59 45 24 42 41 18 5 6 7 8 8 27 7 8 9 12 24 21 24 17 10 11 10 6 2 14 10 20 11 9 19 10 8 6
62 64 64 66 69 70 74 76 83 86 92 89 83 30 61 13 24 40 4 7 8 6 8 7 7 8 10 20 8 14 15 15 15 14 7 3 5 11 10 12 4 15 14 9 5 11 5
62 63 64 65 68 69 72 77 82 85 86 82 55 16 49 15 20 17 2 9 13 19 2 7 8 7 7 4 10 14 17 7 24 18 16 7 6 9 10 12 20 3 6 9 9 10 12
61 62 64 64 65 66 69 74 80 83 82 73 32 8 38 40 7 7 5 18 23 15 9 11 6 4 3 3 2 11 18 24 35 14 18 14 8 6 9 5 12 15 18 15 10 8 5
60 60 62 62 61 63 65 68 75 80 72 69 25 11 25 48 7 8 15 16 11 18 15 5 6 7 4 6 3 3 13 23 19 22 17 13 4 3 11 11 8 7 4 10 12 8 9
59 60 59 59 57 59 58 61 68 75 68 43 17 9 17 16 17 14 16 11 14 19 11 6 8 7 4 2 3 6 8 3 31 20 37 21 6 12 12 9 6 6 9 5 14 9 11
56 57 60 57 55 55 54 55 61 71 68 40 22 7 13 9 13 22 18 8 21 15 13 4 7 14 6 2 3 5 4 11 9 11 9 14 10 5 9 8 10 7 7 5 8 12 12
55 56 56 55 54 52 50 50 52 63 68 40 15 13 17 18 30 22 15 8 22 16 10 9 8 7 17 6 2 7 4 11 8 13 7 5 7 7 5 3 6 12 13 12 9 9 12
53 52 52 52 52 51 47 47 45 50 58 24 34 23 11 16 15 12 11 19 27 31 19 22 22 17 7 17 7 12 13 9 7 2 2 7 13 7 3 5 6 9 6 6 11 11 9
51 49 49 49 51 50 49 42 41 40 43 42 34 18 10 8 14 10 22 39 32 32 17 24 20 4 14 8 18 7 4 4 9 5 15 11 10 7 6 6 2 7 22 36 27 16 11
49 49 49 48 47 44 45 43 39 35 36 40 18 11 8 8 25 24 35 33 47 39 15 11 9 11 13 4 4 7 9 9 7 10 5 8 11 8 9 6 6 6 8 12 10 11 15
47 48 47 47 45 43 42 41 38 33 34 36 11 20 13 14 6 34 25 22 13 19 17 13 20 24 9 4 4 7 6 7 6 6 11 8 12 10 5 10 9 8 1 44 15 6 7
45 46 47 47 44 42 43 40 33 32 29 36 19 13 15 12 24 24 13 12 18 9 7 16 21 12 14 4 4 5 5 4 9 8 9 5 9 11 7 7 5 7 4 2 7 15 26
44 44 45 45 42 42 39 36 34 33 30 36 30 8 15 11 45 17 30 44 33 11 6 19 13 3 3 4 3 4 4 6 4 2 8 8 10 4 7 8 3 5 3 6 21 38 55
42 41 43 41 41 40 37 34 32 34 32 31 32 19 17 26 45 45 16 18 29 19 20 15 6 8 7 4 5 3 4 6 10 7 3 6 8 11 5 3 9 5 36 59 61 66 52
Wind_Direction_500mb
357 355 351 346 342 338 335 327 321 322 322 320 318 318 318 319 322 323 316 312 307 301 296 297 289 286 291 269 252 230 282 326 182 187 192 185 184 170 161 164 130 154 213 207 236 299 286
1 357 354 350 348 345 342 333 322 315 317 315 316 314 312 316 316 313 314 309 307 297 294 290 287 268 273 261 282 279 252 277 186 186 191 187 193 181 180 149 163 218 236 266 266 276 286
3 359 356 352 351 347 345 343 339 329 317 312 309 310 310 309 309 307 306 312 306 299 287 281 278 247 260 251 261 226 186 229 191 189 192 188 182 180 158 119 227 217 8 300 227 228 236
4 0 356 354 352 347 346 344 341 337 334 322 315 309 311 309 309 307 302 306 307 297 283 273 248 254 253 273 262 240 228 222 194 191 163 201 173 175 144 154 124 157 134 216 244 173 243
4 0 358 357 353 350 349 347 347 345 342 342 334 327 313 307 307 310 304 305 310 281 265 247 253 227 262 264 259 219 209 200 182 197 196 158 205 185 163 123 87 176 209 201 309 182 165
5 3 1 358 354 351 350 348 343 339 334 330 333 330 326 319 316 314 308 308 308 263 225 218 224 232 255 244 279 201 190 187 173 182 178 204 168 142 105 152 192 180 187 172 220 197 187
5 2 0 358 355 351 350 349 346 342 338 334 329 325 322 319 315 313 312 321 297 247 203 201 203 215 237 314 149 200 188 166 165 156 163 185 141 199 185 113 83 129 141 228 131 227 136
4 1 1 358 355 351 349 346 342 338 334 330 328 326 323 317 313 309 298 269 256 277 279 245 240 248 251 276 307 202 184 154 158 171 139 130 216 182 156 175 224 164 141 202 262 190 169
2 1 358 357 355 351 349 348 346 339 333 329 325 323 324 318 313 311 285 257 309 286 262 264 231 234 235 213 219 213 178 168 161 147 179 158 209 178 179 170 185 189 155 159 174 180 156
360 359 356 356 354 352 351 347 344 341 337 330 325 322 324 322 315 297 281 299 284 249 287 264 190 231 180 185 221 198 183 163 134 173 176 205 227 174 172 193 155 183 170 184 247 128 208
356 357 356 355 354 352 350 348 345 341 338 332 328 324 323 320 297 284 278 256 100 143 286 137 156 183 163 176 131 184 187 186 158 153 137 226 189 176 192 175 153 184 158 192 218 183 136
357 355 355 354 353 351 350 349 347 343 339 334 330 327 323 310 287 312 189 211 165 217 248 311 143 163 158 198 227 152 167 192 194 154 148 206 194 162 178 175 166 164 134 102 58 129 202
355 355 353 353 352 351 349 349 347 344 339 335 333 330 318 291 268 167 169 156 221 241 326 54 158 156 172 155 197 156 168 195 171 138 174 181 237 176 142 160 152 121 117 241 216 86 223
355 354 353 353 352 352 350 350 349 346 341 339 338 336 342 329 196 161 156 155 247 307 310 40 322 275 191 132 200 169 172 192 225 125 108 158 158 161 180 172 157 174 154 152 174 186 294
355 353 354 354 353 352 353 352 351 348 341 344 343 351 18 17 160 162 167 186 266 276 0 70 318 241 150 164 131 168 178 195 206 174 141 138 274 167 173 175 147 171 140 192 96 22 79
355 352 353 355 354 354 355 353 354 352 343 349 348 5 2 17 189 177 224 238 233 280 38 337 279 187 155 187 126 140 165 189 201 181 122 108 169 200 206 124 264 166 160 97 355 158 182
353 353 352 355 355 356 355 355 355 359 346 351 357 33 2 24 135 183 237 287 296 305 272 257 265 360 18 132 175 177 186 214 185 187 138 159 88 304 119 171 165 108 162 64 113 134 165
351 352 353 355 356 356 357 357 357 3 351 359 4 26 17 347 46 30 318 309 306 328 336 250 226 292 291 307 107 170 193 211 185 128 156 189 152 225 195 203 189 165 172 151 128 199 140
351 350 352 354 356 356 357 359 360 5 1 351 351 328 20 26 20 358 332 319 298 15 327 348 318 287 3 348 70 43 210 221 179 160 153 175 242 345 355 359 10 64 141 119 119 95 179
348 348 349 353 355 356 357 1 1 6 8 1 6 352 357 17 348 338 342 327 324 299 268 211 272 275 296 280 103 352 329 336 197 182 179 132 129 157 185 200 153 17 23 158 122 113 166
346 347 349 352 354 356 357 2 5 5 12 17 22 8 4 317 335 329 323 286 333 350 347 242 283 240 219 257 145 204 331 334 74 114 91 131 157 108 69 121 123 109 70 301 126 147 157
344 346 350 354 355 356 357 2 8 6 9 27 24 355 334 307 298 334 342 332 326 332 299 297 213 294 252 251 8 166 359 16 47 340 93 359 132 107 67 137 130 95 21 61 56 144 83
341 345 350 352 353 354 354 0 6 9 11 9 3 340 316 310 318 342 336 326 312 317 297 260 279 272 220 231 246 130 102 163 195 87 44 108 129 106 117 292 133 59 151 48 54 22 122
337 342 345 348 348 352 353 353 1 6 9 2 351 333 333 307 323 315 303 327 316 316 290 281 291 313 0 142 125 50 19 281 274 261 190 138 102 91 132 35 104 231 118 104 93 29 6
334 337 341 345 347 350 351 351 353 358 3 1 354 355 315 292 303 298 329 324 325 337 337 318 325 345 314 174 119 79 349 19 322 37 123 230 110 90 125 121 300 54 186 135 136 16 10
330 334 336 339 341 346 346 347 347 353 356 356 0 348 322 301 246 315 324 302 326 346 340 314 330 9 27 107 179 130 158 132 266 6 40 84 77 108 128 111 179 250 10 125 101 61 37
326 329 333 334 337 341 342 342 345 346 352 339 346 320 322 277 291 313 290 302 315 313 286 285 330 340 27 43 89 124 160 182 161 192 183 50 44 120 100 112 292 179 350 350 112 195 152
322 325 330 331 334 338 338 339 339 338 343 334 339 329 331 270 292 289 303 300 303 270 299 293 312 346 291 87 115 164 152 157 94 236 191 140 116 112 78 102 166 134 50 181 141 119 131
318 322 326 329 334 339 338 338 334 335 336 330 327 343 303 271 279 303 310 329 326 303 311 300 299 294 310 343 194 251 169 134 146 184 300 100 170 134 95 211 328 89 121 121 130 126 124
Wind_Speed_850mb
41 40 40 40 40 38 36 31 34 34 33 35 37 38 40 39 41 40 37 38 35 35 35 30 23 21 28 18 53 16 23 21 55 66 66 43 44 25 16 17 5 4 4 8 9 14 20
43 42 40 41 41 43 42 40 37 38 37 31 36 39 41 41 40 43 41 37 38 35 33 27 23 20 27 25 25 13 28 22 56 65 66 49 34 33 16 7 18 8 21 20 7 19 21
46 45 43 43 42 44 44 42 41 40 37 33 36 38 42 43 41 41 44 46 40 37 30 24 21 23 37 65 20 6 7 7 46 64 60 56 24 37 11 4 14 23 4 13 15 14 12
48 47 47 46 45 48 47 45 44 42 40 36 38 39 42 43 46 43 45 47 38 30 25 18 11 22 33 37 24 42 32 20 34 53 23 52 20 26 6 3 11 13 5 11 19 21 14
50 50 50 49 49 49 49 48 48 45 47 45 43 44 40 45 43 45 45 50 37 32 25 12 18 26 27 21 26 30 41 38 31 39 38 6 42 5 5 11 8 10 23 13 11 13 9
54 53 52 51 52 53 50 47 47 44 44 44 43 43 42 45 45 44 47 51 37 25 18 12 21 11 32 12 14 29 51 34 31 29 19 14 17 7 2 8 27 24 21 11 26 11 11
54 54 54 55 54 54 55 53 47 47 49 44 47 46 46 47 50 45 47 49 5 3 28 28 31 25 11 13 15 21 53 44 32 32 12 24 9 33 20 11 1 11 12 7 5 14 9
55 55 55 55 56 57 57 54 54 53 52 52 51 49 51 56 55 49 51 23 10 5 20 53 66 61 62 33 15 16 55 29 19 12 11 10 18 13 12 14 10 3 8 10 3 10 14
57 56 56 57 58 59 61 62 60 60 60 58 55 55 53 56 66 50 25 23 18 22 13 23 56 55 45 31 23 25 60 28 15 13 15 15 10 20 20 16 18 9 9 4 4 8 4
58 57 58 59 60 61 61 64 65 63 63 65 63 61 56 63 45 20 29 19 22 17 8 11 19 18 29 24 13 45 58 33 8 21 18 8 14 32 13 21 13 10 15 11 7 3 9
58 59 61 62 62 62 63 64 68 69 69 69 67 65 63 54 51 48 16 9 11 11 8 8 15 16 46 31 25 30 52 37 15 13 14 16 24 22 23 11 15 10 13 13 10 7 7
59 61 63 63 64 66 68 68 71 74 76 76 73 68 71 67 48 28 15 14 21 6 12 4 20 20 24 15 2 44 37 47 34 13 9 15 19 15 18 13 19 13 7 3 6 8 5
60 61 63 64 66 68 71 73 76 81 84 83 80 78 65 42 39 12 31 27 5 9 10 3 11 21 21 13 5 37 30 36 12 12 11 8 9 8 11 11 7 10 12 1 2 2 12
62 63 64 66 68 70 71 75 79 86 92 90 88 75 40 20 18 30 44 4 8 12 9 14 9 9 21 10 6 30 30 25 10 10 8 11 4 16 9 15 14 13 16 9 8 8 3
62 64 65 67 70 70 72 75 81 87 93 92 89 59 45 24 42 41 18 5 6 7 8 8 27 7 8 9 12 24 21 24 17 10 11 10 6 2 14 10 20 11 9 19 10 8 6
62 64 64 66 69 70 74 76 83 86 92 89 83 30 61 13 24 40 4 7 8 6 8 7 7 8 10 20 8 14 15 15 15 14 7 3 5 11 10 12 4 15 14 9 5 11 5
62 63 64 65 68 69 72 77 82 85 86 82 55 16 49 15 20 17 2 9 13 19 2 7 8 7 7 4 10 14 17 7 24 18 16 7 6 9 10 12 20 3 6 9 9 10 12
61 62 64 64 65 66 69 74 80 83 82 73 32 8 38 40 7 7 5 18 23 15 9 11 6 4 3 3 2 11 18 24 35 14 18 14 8 6 9 5 12 15 18 15 10 8 5
60 60 62 62 61 63 65 68 75 80 72 69 25 11 25 48 7 8 15 16 11 18 15 5 6 7 4 6 3 3 13 23 19 22 17 13 4 3 11 11 8 7 4 10 12 8 9
59 60 59 59 57 59 58 61 68 75 68 43 17 9 17 16 17 14 16 11 14 19 11 6 8 7 4 2 3 6 8 3 31 20 37 21 6 12 12 9 6 6 9 5 14 9 11
56 57 60 57 55 55 54 55 61 71 68 40 22 7 13 9 13 22 18 8 21 15 13 4 7 14 6 2 3 5 4 11 9 11 9 14 10 5 9 8 10 7 7 5 8 12 12
55 56 56 55 54 52 50 50 52 63 68 40 15 13 17 18 30 22 15 8 22 16 10 9 8 7 17 6 2 7 4 11 8 13 7 5 7 7 5 3 6 12 13 12 9 9 12
53 52 52 52 52 51 47 47 45 50 58 24 34 23 11 16 15 12 11 19 27 31 19 22 22 17 7 17 7 12 13 9 7 2 2 7 13 7 3 5 6 9 6 6 11 11 9
51 49 49 49 51 50 49 42 41 40 43 42 34 18 10 8 14 10 22 39 32 32 17 24 20 4 14 8 18 7 4 4 9 5 15 11 10 7 6 6 2 7 22 36 27 16 11
49 49 49 48 47 44 45 43 39 35 36 40 18 11 8 8 25 24 35 33 47 39 15 11 9 11 13 4 4 7 9 9 7 10 5 8 11 8 9 6 6 6 8 12 10 11 15
47 48 47 47 45 43 42 41 38 33 34 36 11 20 13 14 6 34 25 22 13 19 17 13 20 24 9 4 4 7 6 7 6 6 11 8 12 10 5 10 9 8 1 44 15 6 7
45 46 47 47 44 42 43 40 33 32 29 36 19 13 15 12 24 24 13 12 18 9 7 16 21 12 14 4 4 5 5 4 9 8 9 5 9 11 7 7 5 7 4 2 7 15 26
44 44 45 45 42 42 39 36 34 33 30 36 30 8 15 11 45 17 30 44 33 11 6 19 13 3 3 4 3 4 4 6 4 2 8 8 10 4 7 8 3 5 3 6 21 38 55
42 41 43 41 41 40 37 34 32 34 32 31 32 19 17 26 45 45 16 18 29 19 20 15 6 8 7 4 5 3 4 6 10 7 3 6 8 11 5 3 9 5 36 59 61 66 52
Wind_Direction_850mb
357 355 351 346 342 338 335 327 321 322 322 320 318 318 318 319 322 323 316 312 307 301 296 297 289 286 291 269 252 230 282 326 182 187 192 185 184 170 161 164 130 154 213 207 236 299 286
1 357 354 350 348 345 342 333 322 315 317 315 316 314 312 316 316 313 314 309 307 297 294 290 287 268 273 261 282 279 252 277 186 186 191 187 193 181 180 149 163 218 236 266 266 276 286
3 359 356 352 351 347 345 343 339 329 317 312 309 310 310 309 309 307 306 312 306 299 287 281 278 247 260 251 261 226 186 229 191 189 192 188 182 180 158 119 227 217 8 300 227 228 236
4 0 356 354 352 347 346 344 341 337 334 322 315 309 311 309 309 307 302 306 307 297 283 273 248 254 253 273 262 240 228 222 194 191 163 201 173 175 144 154 124 157 134 216 244 173 243
4 0 358 357 353 350 349 347 347 345 342 342 334 327 313 307 307 310 304 305 310 281 265 247 253 227 262 264 259 219 209 200 182 197 196 158 205 185 163 123 87 176 209 201 309 182 165
5 3 1 358 354 351 350 348 343 339 334 330 333 330 326 319 316 314 308 308 308 263 225 218 224 232 255 244 279 201 190 187 173 182 178 204 168 142 105 152 192 180 187 172 220 197 187
5 2 0 358 355 351 350 349 346 342 338 334 329 325 322 319 315 313 312 321 297 247 203 201 203 215 237 314 149 200 188 166 165 156 163 185 141 199 185 113 83 129 141 228 131 227 136
4 1 1 358 355 351 349 346 342 338 334 330 328 326 323 317 313 309 298 269 256 277 279 245 240 248 251 276 307 202 184 154 158 171 139 130 216 182 156 175 224 164 141 202 262 190 169
2 1 358 357 355 351 349 348 346 339 333 329 325 323 324 318 313 311 285 257 309 286 262 264 231 234 235 213 219 213 178 168 161 147 179 158 209 178 179 170 185 189 155 159 174 180 156
360 359 356 356 354 352 351 347 344 341 337 330 325 322 324 322 315 297 281 299 284 249 287 264 190 231 180 185 221 198 183 163 134 173 176 205 227 174 172 193 155 183 170 184 247 128 208
356 357 356 355 354 352 350 348 345 341 338 332 328 324 323 320 297 284 278 256 100 143 286 137 156 183 163 176 131 184 187 186 158 153 137 226 189 176 192 175 153 184 158 192 218 183 136
357 355 355 354 353 351 350 349 347 343 339 334 330 327 323 310 287 312 189 211 165 217 248 311 143 163 158 198 227 152 167 192 194 154 148 206 194 162 178 175 166 164 134 102 58 129 202
355 355 353 353 352 351 349 349 347 344 339 335 333 330 318 291 268 167 169 156 221 241 326 54 158 156 172 155 197 156 168 195 171 138 174 181 237 176 142 160 152 121 117 241 216 86 223
355 354 353 353 352 352 350 350 349 346 341 339 338 336 342 329 196 161 156 155 247 307 310 40 322 275 191 132 200 169 172 192 225 125 108 158 158 161 180 172 157 174 154 152 174 186 294
355 353 354 354 353 352 353 352 351 348 341 344 343 351 18 17 160 162 167 186 266 276 0 70 318 241 150 164 131 168 178 195 206 174 141 138 274 167 173 175 147 171 140 192 96 22 79
355 352 353 355 354 354 355 353 354 352 343 349 348 5 2 17 189 177 224 238 233 280 38 337 279 187 155 187 126 140 165 189 201 181 122 108 169 200 206 124 264 166 160 97 355 158 182
353 353 352 355 355 356 355 355 355 359 346 351 357 33 2 24 135 183 237 287 296 305 272 257 265 360 18 132 175 177 186 214 185 187 138 159 88 304 119 171 165 108 162 64 113 134 165
351 352 353 355 356 356 357 357 357 3 351 359 4 26 17 347 46 30 318 309 306 328 336 250 226 292 291 307 107 170 193 211 185 128 156 189 152 225 195 203 189 165 172 151 128 199 140
351 350 352 354 356 356 357 359 360 5 1 351 351 328 20 26 20 358 332 319 298 15 327 348 318 287 3 348 70 43 210 221 179 160 153 175 242 345 355 359 10 64 141 119 119 95 179
348 348 349 353 355 356 357 1 1 6 8 1 6 352 357 17 348 338 342 327 324 299 268 211 272 275 296 280 103 352 329 336 197 182 179 132 129 157 185 200 153 17 23 158 122 113 166
346 347 349 352 354 356 357 2 5 5 12 17 22 8 4 317 335 329 323 286 333 350 347 242 283 240 219 257 145 204 331 334 74 114 91 131 157 108 69 121 123 109 70 301 126 147 157
344 346 350 354 355 356 357 2 8 6 9 27 24 355 334 307 298 334 342 332 326 332 299 297 213 294 252 251 8 166 359 16 47 340 93 359 132 107 67 137 130 95 21 61 56 144 83
341 345 350 352 353 354 354 0 6 9 11 9 3 340 316 310 318 342 336 326 312 317 297 260 279 272 220 231 246 130 102 163 195 87 44 108 129 106 117 292 133 59 151 48 54 22 122
337 342 345 348 348 352 353 353 1 6 9 2 351 333 333 307 323 315 303 327 316 316 290 281 291 313 0 142 125 50 19 281 274 261 190 138 102 91 132 35 104 231 118 104 93 29 6
334 337 341 345 347 350 351 351 353 358 3 1 354 355 315 292 303 298 329 324 325 337 337 318 325 345 314 174 119 79 349 19 322 37 123 230 110 90 125 121 300 54 186 135 136 16 10
330 334 336 339 341 346 346 347 347 353 356 356 0 348 322 301 246 315 324 302 326 346 340 314 330 9 27 107 179 130 158 132 266 6 40 84 77 108 128 111 179 250 10 125 101 61 37
326 329 333 334 337 341 342 342 345 346 352 339 346 320 322 277 291 313 290 302 315 313 286 285 330 340 27 43 89 124 160 182 161 192 183 50 44 120 100 112 292 179 350 350 112 195 152
322 325 330 331 334 338 338 339 339 338 343 334 339 329 331 270 292 289 303 300 303 270 299 293 312 346 291 87 115 164 152 157 94 236 191 140 116 112 78 102 166 134 50 181 141 119 131
318 322 326 329 334 339 338 338 334 335 336 330 327 343 303 271 279 303 310 329 326 303 311 300 299 294 310 343 194 251 169 134 146 184 300 100 170 134 95 211 328 89 121 121 130 126 124